TimeHST,TemperatureF,Dew PointF,Humidity,Sea Level PressureIn,VisibilityMPH,Wind Direction,Wind SpeedMPH,Gust SpeedMPH,PrecipitationIn,Events,Conditions,WindDirDegrees,DateUTC
12:16 AM,39.2,-9.4,12,30.02,9.0,WNW,26.5,43.7,N/A,,Overcast,300,2012-11-18 10:16:00
12:36 AM,39.2,-9.4,12,30.03,10.0,WNW,28.8,35.7,N/A,,Overcast,300,2012-11-18 10:36:00
12:56 AM,41.0,-9.4,12,30.04,10.0,WNW,27.6,35.7,N/A,,Overcast,300,2012-11-18 10:56:00
1:16 AM,41.0,-9.4,12,30.04,10.0,WNW,32.2,38.0,N/A,,Overcast,300,2012-11-18 11:16:00
1:36 AM,41.0,-9.4,12,30.04,10.0,NW,25.3,34.5,N/A,,Overcast,310,2012-11-18 11:36:00
1:56 AM,39.2,-9.4,12,30.05,10.0,WNW,28.8,35.7,N/A,,Overcast,300,2012-11-18 11:56:00
2:16 AM,39.2,-9.4,12,30.05,10.0,WNW,27.6,39.1,N/A,,Overcast,300,2012-11-18 12:16:00
2:36 AM,39.2,-9.4,12,30.06,10.0,WNW,26.5,41.4,N/A,,Mostly Cloudy,300,2012-11-18 12:36:00
2:56 AM,39.2,-9.4,12,30.06,10.0,NW,23.0,35.7,N/A,,Overcast,310,2012-11-18 12:56:00
3:16 AM,39.2,-9.4,12,30.07,10.0,WNW,26.5,34.5,N/A,,Overcast,300,2012-11-18 13:16:00
3:36 AM,39.2,-9.4,12,30.08,10.0,WNW,21.9,33.4,N/A,,Mostly Cloudy,300,2012-11-18 13:36:00
3:56 AM,39.2,-9.4,12,30.09,5.0,NW,26.5,36.8,N/A,,Overcast,310,2012-11-18 13:56:00
4:16 AM,39.2,-11.2,11,30.10,10.0,WNW,25.3,35.7,N/A,,Overcast,300,2012-11-18 14:16:00
4:36 AM,37.4,-11.2,12,30.11,8.0,WNW,28.8,44.9,N/A,,Mostly Cloudy,300,2012-11-18 14:36:00
4:56 AM,39.2,-11.2,11,30.11,10.0,WNW,27.6,33.4,N/A,,Mostly Cloudy,300,2012-11-18 14:56:00
5:16 AM,37.4,-11.2,12,30.12,10.0,WNW,25.3,33.4,N/A,,Scattered Clouds,300,2012-11-18 15:16:00
5:36 AM,39.2,-11.2,11,30.13,10.0,NW,27.6,35.7,N/A,,Scattered Clouds,310,2012-11-18 15:36:00
5:56 AM,39.2,-11.2,11,30.13,10.0,NW,23.0,32.2,N/A,,Mostly Cloudy,310,2012-11-18 15:56:00
6:16 AM,39.2,-11.2,11,30.14,10.0,WNW,26.5,33.4,N/A,,Overcast,300,2012-11-18 16:16:00
6:36 AM,39.2,-11.2,11,30.15,10.0,NW,27.6,34.5,N/A,,Overcast,310,2012-11-18 16:36:00
6:56 AM,39.2,-11.2,11,30.15,10.0,NW,27.6,35.7,N/A,,Mostly Cloudy,310,2012-11-18 16:56:00
7:16 AM,39.2,-11.2,11,30.17,10.0,NW,25.3,35.7,N/A,,Scattered Clouds,310,2012-11-18 17:16:00
7:36 AM,39.2,-11.2,11,30.17,10.0,NW,27.6,35.7,N/A,,Partly Cloudy,310,2012-11-18 17:36:00
7:56 AM,39.2,-11.2,11,30.17,9.0,NW,28.8,34.5,N/A,,Mostly Cloudy,320,2012-11-18 17:56:00
8:16 AM,39.2,-11.2,11,30.17,10.0,NW,27.6,35.7,N/A,,Mostly Cloudy,310,2012-11-18 18:16:00
8:36 AM,39.2,-11.2,11,30.16,10.0,NW,27.6,39.1,N/A,,Scattered Clouds,310,2012-11-18 18:36:00
8:56 AM,37.4,-11.2,12,30.17,10.0,NW,25.3,35.7,N/A,,Partly Cloudy,320,2012-11-18 18:56:00
9:16 AM,39.2,-11.2,11,30.18,10.0,NW,25.3,36.8,N/A,,Partly Cloudy,310,2012-11-18 19:16:00
9:36 AM,39.2,-9.4,12,30.19,10.0,NW,24.2,29.9,N/A,,Mostly Cloudy,310,2012-11-18 19:36:00
9:56 AM,39.2,-9.4,12,30.21,10.0,NW,19.6,31.1,N/A,,Mostly Cloudy,310,2012-11-18 19:56:00
10:16 AM,39.2,-9.4,12,30.21,10.0,WNW,17.3,27.6,N/A,,Overcast,300,2012-11-18 20:16:00
10:36 AM,39.2,-9.4,12,30.22,10.0,NW,23.0,31.1,N/A,,Mostly Cloudy,310,2012-11-18 20:36:00
10:56 AM,41.0,-9.4,12,30.22,10.0,NW,18.4,28.8,N/A,,Mostly Cloudy,310,2012-11-18 20:56:00
11:16 AM,41.0,-9.4,12,30.23,10.0,WNW,21.9,28.8,N/A,,Overcast,300,2012-11-18 21:16:00
11:36 AM,39.2,-9.4,12,30.23,10.0,WNW,19.6,29.9,N/A,,Overcast,300,2012-11-18 21:36:00
11:56 AM,39.2,-11.2,11,30.24,10.0,WNW,20.7,27.6,N/A,,Overcast,300,2012-11-18 21:56:00
12:16 PM,39.2,-11.2,11,30.24,9.0,NW,18.4,29.9,N/A,,Mostly Cloudy,310,2012-11-18 22:16:00
12:36 PM,39.2,-9.4,12,30.24,7.0,NW,24.2,33.4,N/A,,Overcast,320,2012-11-18 22:36:00
12:56 PM,39.2,-9.4,12,30.25,8.0,NW,21.9,29.9,N/A,,Mostly Cloudy,310,2012-11-18 22:56:00
1:16 PM,39.2,-9.4,12,30.24,9.0,NW,24.2,32.2,N/A,,Mostly Cloudy,310,2012-11-18 23:16:00
1:36 PM,39.2,-9.4,12,30.24,10.0,NW,23.0,26.5,N/A,,Overcast,310,2012-11-18 23:36:00
1:56 PM,39.2,-9.4,12,30.24,10.0,NW,20.7,26.5,N/A,,Mostly Cloudy,310,2012-11-18 23:56:00
2:16 PM,39.2,-9.4,12,30.25,10.0,WNW,19.6,26.5,N/A,,Mostly Cloudy,300,2012-11-19 00:16:00
2:36 PM,39.2,-9.4,12,30.24,10.0,WNW,17.3,24.2,N/A,,Mostly Cloudy,300,2012-11-19 00:36:00
2:56 PM,39.2,-9.4,12,30.24,10.0,NW,21.9,27.6,N/A,,Mostly Cloudy,310,2012-11-19 00:56:00
3:16 PM,39.2,-9.4,12,30.24,9.0,NW,20.7,25.3,N/A,,Overcast,310,2012-11-19 01:16:00
3:36 PM,39.2,-9.4,12,30.24,10.0,NW,16.1,27.6,N/A,,Overcast,320,2012-11-19 01:36:00
3:56 PM,39.2,-11.2,11,30.24,7.0,NNW,15.0,-,N/A,,Mostly Cloudy,340,2012-11-19 01:56:00
4:16 PM,39.2,-11.2,11,30.24,10.0,NNW,11.5,19.6,N/A,,Overcast,330,2012-11-19 02:16:00
4:36 PM,39.2,-11.2,11,30.25,4.0,NNW,12.7,-,N/A,,Overcast,340,2012-11-19 02:36:00
4:56 PM,37.4,-11.2,12,30.25,10.0,NW,11.5,-,N/A,,Overcast,320,2012-11-19 02:56:00
5:16 PM,37.4,-11.2,12,30.26,10.0,WNW,8.1,-,N/A,,Overcast,290,2012-11-19 03:16:00
5:36 PM,37.4,-11.2,12,30.26,10.0,NW,9.2,-,N/A,,Mostly Cloudy,320,2012-11-19 03:36:00
5:56 PM,35.6,-11.2,13,30.25,10.0,WNW,9.2,-,N/A,,Partly Cloudy,300,2012-11-19 03:56:00
6:16 PM,35.6,-13.0,12,30.26,10.0,NW,9.2,-,N/A,,Scattered Clouds,310,2012-11-19 04:16:00
6:36 PM,35.6,-13.0,12,30.26,10.0,NW,9.2,16.1,N/A,,Overcast,310,2012-11-19 04:36:00
6:56 PM,35.6,-13.0,12,30.26,10.0,WNW,9.2,-,N/A,,Mostly Cloudy,300,2012-11-19 04:56:00
7:16 PM,35.6,-14.8,11,30.26,10.0,WNW,6.9,-,N/A,,Partly Cloudy,290,2012-11-19 05:16:00
7:36 PM,35.6,-14.8,11,30.27,10.0,NW,9.2,-,N/A,,Clear,310,2012-11-19 05:36:00
7:56 PM,35.6,-14.8,11,30.28,10.0,NW,6.9,-,N/A,,Partly Cloudy,310,2012-11-19 05:56:00
8:16 PM,35.6,-14.8,11,30.28,10.0,Calm,Calm,-,N/A,,Mostly Cloudy,0,2012-11-19 06:16:00
8:36 PM,35.6,-14.8,11,30.28,10.0,Calm,Calm,-,N/A,,Overcast,0,2012-11-19 06:36:00
8:56 PM,35.6,-14.8,11,30.29,10.0,WSW,5.8,-,N/A,,Overcast,240,2012-11-19 06:56:00
9:16 PM,33.8,-14.8,12,30.28,10.0,SW,5.8,-,N/A,,Scattered Clouds,230,2012-11-19 07:16:00
9:36 PM,33.8,-14.8,12,30.28,10.0,WSW,5.8,-,N/A,,Scattered Clouds,240,2012-11-19 07:36:00
9:56 PM,32.0,-14.8,13,30.28,10.0,SW,5.8,-,N/A,,Partly Cloudy,220,2012-11-19 07:56:00
10:16 PM,32.0,-16.6,12,30.28,10.0,Calm,Calm,-,N/A,,Clear,0,2012-11-19 08:16:00
10:36 PM,30.2,-16.6,13,30.27,10.0,Calm,Calm,-,N/A,,Clear,0,2012-11-19 08:36:00
10:56 PM,30.2,-16.6,13,30.28,10.0,WSW,3.5,-,N/A,,Partly Cloudy,240,2012-11-19 08:56:00
11:16 PM,30.2,-16.6,13,30.27,10.0,South,4.6,-,N/A,,Mostly Cloudy,180,2012-11-19 09:16:00
11:36 PM,33.8,-14.8,12,30.27,10.0,SSW,4.6,-,N/A,,Mostly Cloudy,200,2012-11-19 09:36:00
11:56 PM,33.8,-14.8,12,30.27,10.0,North,4.6,-,N/A,,Mostly Cloudy,360,2012-11-19 09:56:00